Main page
METAR-TAF:

METAR-TAF

Airports :

Mitchell Municipal Airport

Mitchell, South Dakota, United States

latitude: 43-46N, longitude: 098-02W, elevation: 1302 ft

Current weather observation

The report was made 19 minutes ago, at 15:53 UTC
Wind 18 mph from the North
Temperature 72°F
Humidity 38%
Pressure 30.11 in. Hg
Visibility: 10 miles
Clear sky

METAR: KMHE 281553Z AUTO 36016KT 10SM CLR 22/07 A3011 RMK AO2 SLP190 T02220067

Time: 11:12 (16:12 UTC)


TAF: missing

Weather observations and forecasts of more than 4000 airports (METAR and TAF reports).

The available stations are represented by yellow and red dots on the map.

Hover mouse over dot to see the name of the station.

Then click to see weather observations and forecasts.

To change the map : click on the green buttons with a black cross to zoom in, on the green button with a dash to zoom out, or on the green arrows for adjacent maps.


METAR-TAF: